GFSSW_sfc_temp_021.txt.gz
Temp
63 63 63 63 63 63 63 63 63 63 63 63 63 63 63 63 63 59 60 70 68 70 69 65 65 63 63 60 60 57 49 44 49 48 55 58 57 60 61 61 60 62 63 65 55
63 63 63 63 63 63 63 63 63 63 63 63 63 63 63 62 57 59 70 72 71 70 66 64 61 62 58 57 57 54 46 49 54 53 55 58 58 60 60 60 58 61 63 58 54
62 62 62 62 63 63 63 63 62 62 63 62 62 62 62 58 59 64 72 72 70 70 67 64 62 62 56 55 55 52 50 52 56 57 57 56 55 60 58 57 59 61 65 59 54
62 62 62 62 62 63 63 63 63 62 63 62 62 62 61 56 54 63 70 71 70 67 66 62 60 56 53 53 55 50 54 54 57 57 55 55 56 55 57 67 66 64 65 61 57
61 61 61 61 62 62 63 63 63 62 62 62 62 62 57 54 62 63 67 67 65 65 64 60 58 55 52 52 52 50 52 55 55 55 55 55 55 55 56 63 62 61 59 60 58
61 60 60 60 61 62 62 63 63 62 62 62 62 61 55 50 64 63 62 62 63 63 60 61 59 58 54 53 52 52 52 53 54 55 54 55 59 54 59 59 60 58 59 58 57
60 60 60 60 61 61 62 62 62 62 61 62 62 57 52 60 61 61 63 61 61 61 58 59 61 59 56 51 53 51 51 51 51 52 53 51 51 49 62 55 60 60 58 56 58
60 60 60 60 60 61 61 61 61 61 62 61 61 53 55 60 58 61 59 59 59 60 61 60 60 58 55 54 52 46 45 43 50 49 50 54 47 59 60 55 58 59 59 59 60
60 59 60 60 60 60 60 61 60 62 62 61 52 52 55 61 58 59 59 59 58 58 59 64 59 53 51 46 43 41 39 40 45 50 50 49 47 55 55 54 56 59 63 60 64
59 59 60 60 60 60 60 61 60 60 58 58 60 51 58 56 57 58 57 60 56 56 55 53 48 46 42 43 38 39 36 38 41 50 45 44 45 52 57 55 58 60 60 62 63
60 60 60 60 60 61 56 54 54 52 52 54 53 53 55 55 57 55 57 58 56 52 46 46 42 41 48 46 44 41 40 39 44 49 44 49 50 51 56 54 56 60 62 61 62
60 60 60 60 60 60 54 51 48 49 44 53 53 53 55 55 52 52 58 53 49 45 44 41 38 47 46 45 44 42 42 41 46 50 43 44 47 54 56 57 59 60 61 59 59
59 59 59 59 59 55 50 49 51 50 40 48 50 49 52 56 50 51 56 49 45 41 42 42 45 47 45 42 43 39 38 42 41 42 43 40 41 42 51 51 54 58 58 58 58
59 59 59 59 56 50 49 51 51 49 37 43 47 50 51 50 45 51 51 49 43 44 42 41 45 45 40 41 43 40 44 43 40 37 34 41 34 40 49 52 51 53 53 54 54
57 57 59 60 53 52 52 53 51 49 32 46 46 55 50 47 44 47 49 48 41 41 42 42 41 39 39 43 43 42 43 40 38 35 33 33 32 39 43 49 51 55 54 54 55
56 57 58 57 55 54 55 54 54 43 34 43 45 44 43 44 43 45 46 48 44 40 39 41 43 44 45 43 44 43 39 38 33 33 27 36 36 36 42 48 48 55 56 54 53
55 56 56 58 54 54 54 52 41 34 47 41 41 43 40 41 42 43 40 38 39 35 34 39 40 42 44 40 41 41 37 29 26 24 28 34 32 40 47 51 51 54 54 53 50
55 55 54 57 55 55 54 46 33 42 41 46 46 44 42 47 47 45 42 40 42 41 36 34 35 41 43 46 43 38 41 33 23 22 30 34 32 41 48 52 50 48 50 50 50
54 50 51 54 55 55 49 37 38 41 45 45 46 42 37 40 45 41 40 40 44 44 41 35 33 40 40 43 48 38 36 43 33 29 26 34 40 49 48 48 48 48 47 44 42
44 44 47 54 55 52 43 39 41 47 48 48 41 43 36 36 39 39 38 39 40 44 48 40 32 41 40 40 38 42 44 34 32 23 23 31 32 38 44 45 45 38 36 38 39
43 39 47 54 55 46 36 38 43 49 50 45 43 41 42 39 42 40 39 43 44 43 45 43 37 36 38 36 38 36 35 37 37 34 29 28 31 48 42 34 34 35 36 37 38
41 33 49 54 41 42 38 40 44 43 46 45 44 43 41 42 40 39 40 45 49 46 41 42 37 31 38 45 41 41 42 42 34 30 33 34 35 46 35 35 36 34 36 38 38
36 35 47 50 33 37 40 42 45 40 42 42 41 44 43 41 36 40 42 44 45 45 40 41 34 30 31 33 35 35 36 35 34 32 29 26 31 45 46 34 33 34 34 36 38
34 27 34 44 39 38 33 36 36 42 42 44 42 42 39 37 40 38 38 42 41 42 44 43 34 32 28 33 37 33 34 34 31 25 28 28 30 39 43 31 32 32 33 34 36
31 28 34 29 34 31 37 36 32 32 40 41 37 37 35 32 33 34 36 35 39 39 39 37 31 32 34 33 31 29 28 29 27 30 24 28 30 38 28 28 31 34 34 34 34
29 28 31 32 31 33 32 32 34 34 35 34 34 36 32 30 33 30 31 32 31 30 31 33 26 27 24 29 30 26 28 29 29 30 30 31 30 29 31 31 30 32 33 31 33
30 33 34 28 27 25 25 29 28 31 31 31 30 29 27 31 32 33 33 31 31 28 27 27 26 21 19 26 22 17 25 30 31 33 28 24 23 24 24 28 29 30 31 31 32

GFSSW_sfc_temp_024.txt.gz
Temp
63 63 64 64 64 64 64 64 63 63 63 63 64 63 63 63 64 68 72 78 76 70 72 77 77 76 76 72 72 71 66 62 64 62 70 73 71 73 76 75 73 76 78 83 71
63 63 63 63 63 63 64 63 63 63 63 63 63 63 63 63 68 70 76 72 71 70 77 76 73 74 74 70 70 69 64 66 71 72 70 73 71 74 72 75 74 74 80 76 69
62 62 63 63 63 63 63 63 63 63 63 63 63 63 62 64 71 77 72 72 70 73 80 78 77 74 69 69 69 66 65 71 70 72 71 70 69 73 72 70 77 77 80 82 73
62 62 62 62 62 63 63 63 63 63 63 63 62 62 62 69 66 77 71 71 70 78 77 74 73 69 67 65 68 62 67 69 69 68 67 66 70 69 71 75 82 82 81 80 77
61 61 61 61 62 62 63 63 63 63 62 62 62 62 68 69 73 73 68 70 74 75 75 73 70 69 65 66 64 61 67 68 69 65 66 67 66 67 70 77 80 79 75 74 77
61 61 60 61 61 62 63 63 63 62 62 62 62 61 70 62 75 73 70 69 75 75 73 73 73 72 68 66 64 66 64 66 67 66 66 63 69 66 72 78 76 76 75 77 75
61 60 60 60 61 62 62 62 62 62 62 62 62 64 66 71 73 72 71 70 71 74 69 71 73 71 69 64 66 64 60 66 68 65 64 64 61 62 74 76 72 76 79 78 76
61 60 60 60 61 61 61 62 61 61 62 62 62 65 67 68 73 69 71 69 71 73 72 71 72 70 67 66 63 60 59 57 68 60 63 64 60 73 78 72 73 76 79 79 80
60 59 60 60 60 60 61 61 60 62 62 62 64 66 66 65 67 69 71 68 68 69 70 70 71 66 64 60 58 59 54 57 59 63 62 59 61 70 71 69 70 73 75 76 77
60 60 60 60 60 60 60 61 61 62 63 64 67 63 69 66 66 65 68 69 66 66 65 65 64 61 59 58 50 56 53 54 53 64 59 57 56 65 69 68 67 71 74 76 75
60 60 60 60 60 61 64 67 67 64 64 63 65 64 65 65 67 64 66 66 66 64 58 60 57 53 60 61 62 59 55 54 59 64 57 57 59 63 66 66 67 70 72 74 74
60 60 60 60 60 60 65 62 59 59 55 62 59 60 62 65 61 61 66 62 59 56 55 53 51 60 60 57 54 55 52 53 59 61 55 57 56 61 65 66 68 69 70 72 73
59 59 59 60 60 64 62 59 60 61 53 56 57 57 59 63 58 59 62 60 57 52 53 54 60 57 54 54 52 54 51 53 53 56 56 52 55 56 66 66 67 67 69 69 69
59 59 59 60 61 61 60 59 59 60 51 53 54 58 59 60 54 58 60 59 56 52 53 53 56 52 50 50 54 49 59 53 50 48 46 52 44 56 63 63 64 67 66 68 66
57 57 59 60 61 61 59 60 56 56 37 54 55 64 59 56 56 55 60 59 52 53 52 54 51 48 48 52 54 51 52 50 48 47 44 49 43 56 55 59 65 66 63 62 60
56 57 58 61 62 57 57 59 57 48 35 50 55 54 54 54 52 55 56 60 58 51 51 52 54 53 55 52 52 52 52 50 46 46 39 50 46 50 56 59 62 64 58 56 55
56 56 58 60 57 60 58 55 45 36 53 49 51 51 52 50 50 53 52 53 51 46 49 54 53 53 53 50 50 50 47 40 39 38 39 46 43 50 59 60 59 55 51 51 51
55 56 57 60 61 60 60 50 34 45 47 53 51 49 49 52 53 51 52 51 50 50 47 44 42 49 52 53 49 45 46 33 27 33 39 45 40 51 60 60 53 50 49 49 49
54 56 56 58 59 59 52 37 43 49 52 50 51 47 49 49 50 50 48 50 51 51 45 42 41 50 48 51 53 45 41 49 37 35 30 42 50 57 55 56 49 48 49 47 47
50 50 52 58 60 56 45 41 46 52 52 52 45 49 44 48 46 45 48 48 47 49 53 42 34 46 49 49 50 49 51 37 37 26 25 37 41 45 51 50 47 46 45 45 46
48 44 52 56 58 47 36 41 47 52 53 48 46 45 46 44 46 45 45 48 50 49 51 46 40 43 44 44 45 41 40 38 35 33 28 28 38 55 50 44 43 42 43 43 44
46 40 52 55 42 43 39 44 47 48 51 49 48 47 45 45 43 43 43 49 54 52 44 49 41 33 41 52 51 49 45 45 35 33 38 36 37 47 43 41 41 39 40 42 43
42 43 52 51 37 39 45 45 47 46 47 46 45 48 49 44 38 44 46 50 51 48 45 46 37 31 34 43 41 39 42 41 39 33 30 28 31 45 41 39 38 36 37 39 41
40 36 42 45 45 42 40 41 40 46 46 48 46 47 43 41 44 40 42 45 44 45 43 44 36 32 28 35 41 33 35 36 34 29 31 31 35 44 47 45 37 37 37 38 39
37 36 38 35 38 39 41 41 37 37 43 45 42 42 38 35 37 37 41 41 43 41 42 38 30 34 35 35 34 33 33 34 32 32 26 32 32 39 42 33 35 38 39 37 38
34 35 37 36 36 36 37 37 36 39 40 38 37 41 37 34 37 32 34 36 36 39 36 36 29 32 26 35 34 30 34 34 33 33 33 34 33 45 37 37 37 38 38 38 38
37 39 38 33 32 33 33 36 34 37 34 36 35 33 32 35 36 37 38 37 35 31 30 29 28 27 23 33 29 21 28 33 35 39 38 32 35 31 31 35 37 38 38 38 38

GFSSW_sfc_temp_027.txt.gz
Temp
64 64 64 64 64 64 64 64 64 63 63 64 64 63 63 64 64 74 76 80 79 71 73 82 82 81 81 77 78 78 68 66 69 69 73 79 75 81 83 78 82 82 81 87 79
63 63 63 63 63 63 64 64 63 63 63 63 63 63 63 63 74 77 77 73 71 71 81 79 77 78 77 75 75 72 67 70 78 78 75 79 77 78 77 78 80 82 86 87 82
63 63 63 63 63 63 63 63 63 63 63 63 63 63 63 66 75 81 72 72 70 73 85 85 82 78 73 75 74 73 66 76 78 78 79 75 75 79 74 72 80 81 84 87 87
62 62 62 62 63 63 63 63 63 63 63 63 63 62 62 75 67 79 71 71 70 82 81 79 77 72 70 69 76 65 73 73 74 76 72 71 77 72 75 76 83 84 85 85 83
62 61 61 62 62 63 63 63 63 63 63 63 63 62 70 73 76 78 69 70 77 79 78 76 74 73 68 73 72 66 70 74 75 74 72 72 70 71 72 80 84 84 83 82 82
61 61 61 61 62 62 63 63 63 62 62 62 62 61 72 66 79 80 77 74 80 78 78 79 76 78 72 71 69 73 69 70 73 72 72 66 69 73 76 82 81 82 81 83 82
61 61 61 61 61 62 62 62 62 62 62 62 63 68 71 73 79 78 76 76 77 79 75 79 79 73 74 68 74 68 62 68 71 73 71 69 63 66 78 81 78 79 81 84 85
61 61 60 60 61 61 61 62 61 62 62 62 62 71 70 72 79 74 76 74 76 78 76 76 77 73 69 74 68 63 65 57 70 68 68 65 59 73 80 76 76 77 80 81 83
60 60 60 60 60 60 61 61 61 62 62 62 68 70 70 68 71 73 76 72 73 74 74 74 74 69 70 61 60 64 55 59 64 74 67 62 60 72 77 74 73 75 77 79 80
60 60 60 60 60 60 60 61 62 61 66 70 72 66 72 68 69 69 73 74 70 69 67 67 67 62 64 61 50 58 60 62 61 68 66 63 61 68 73 73 72 73 75 77 78
60 60 61 60 60 61 66 71 69 67 70 67 68 67 72 70 70 67 70 69 70 67 60 64 59 55 62 66 64 61 58 58 63 68 64 62 62 66 71 71 71 72 75 76 76
60 60 60 60 61 61 68 68 63 62 58 70 67 64 68 68 63 64 70 64 62 59 63 56 54 63 66 65 58 58 55 56 62 66 63 60 58 64 67 69 71 72 74 74 73
60 60 60 60 61 66 68 63 66 66 57 63 62 62 63 65 62 63 66 64 60 58 57 55 61 65 59 58 56 57 55 56 56 61 61 58 55 62 69 72 74 72 72 67 65
59 59 60 60 61 69 65 64 66 65 54 58 57 60 62 64 57 62 65 63 59 55 58 57 60 55 55 54 57 50 61 57 54 51 46 57 44 57 64 68 66 65 62 62 61
58 58 59 58 68 66 63 65 63 61 39 57 57 66 63 59 60 58 65 62 57 58 56 56 55 54 52 55 59 53 55 53 52 49 49 51 46 56 63 61 61 60 58 57 57
57 57 58 64 68 65 65 64 62 50 36 53 58 56 56 58 57 58 58 63 62 56 57 58 59 57 57 59 58 57 54 55 55 49 41 52 51 53 59 60 55 56 55 54 55
56 56 59 65 64 66 65 62 47 38 57 53 53 55 55 55 55 55 54 53 54 49 51 58 55 61 57 52 56 52 49 41 39 39 39 51 46 52 61 62 60 54 52 53 53
55 56 58 64 68 65 62 53 35 49 53 56 54 54 51 56 57 55 55 54 62 55 50 47 45 53 55 54 52 51 49 39 29 33 38 47 39 51 62 56 55 53 52 52 51
55 60 61 65 65 64 56 41 43 52 57 54 56 51 52 56 53 55 55 54 57 56 47 46 47 53 53 55 55 47 41 50 35 35 31 41 50 58 62 56 53 51 51 49 50
56 56 57 61 64 60 49 43 51 56 55 55 47 54 48 51 51 52 52 55 51 53 57 46 36 51 52 52 53 47 51 39 39 27 28 39 43 47 50 52 50 47 47 48 49
53 49 55 59 60 52 39 44 50 57 55 50 49 49 50 48 50 49 49 53 54 51 53 47 40 44 50 47 46 44 41 41 40 35 30 29 39 59 52 50 47 46 46 46 46
49 44 55 56 44 46 42 48 48 51 54 52 50 49 48 49 46 47 46 52 57 53 45 51 42 36 43 53 55 51 46 46 33 32 34 35 35 50 46 44 45 43 44 44 45
46 47 54 51 39 42 48 47 50 48 50 49 47 51 52 47 41 47 49 54 52 49 45 47 39 30 34 46 46 42 41 38 37 34 30 27 33 45 43 42 42 42 41 42 43
46 40 44 45 50 46 44 45 44 49 49 51 48 50 46 43 47 43 44 47 47 47 43 45 39 33 29 37 43 37 40 41 36 29 32 32 35 45 49 47 45 43 41 41 42
44 43 45 36 39 43 46 45 42 41 47 47 45 45 43 38 41 41 45 46 48 44 45 43 31 36 37 39 39 35 34 36 35 36 29 34 35 41 45 45 42 41 42 41 41
39 39 41 43 45 42 41 40 40 42 42 41 40 45 44 37 39 34 38 38 38 44 39 41 29 33 27 35 36 32 36 38 37 38 37 37 36 48 46 42 41 42 41 41 42
42 43 41 38 38 38 39 40 40 43 40 41 42 39 37 40 42 41 41 41 40 35 34 33 30 27 22 32 31 24 30 34 36 40 38 32 37 34 36 37 39 40 40 40 41

GFSSW_sfc_temp_033.txt.gz
Temp
64 64 64 64 64 64 64 64 64 64 64 64 64 64 63 63 63 63 65 73 72 70 70 70 68 68 67 63 64 61 49 46 51 55 58 64 61 66 66 61 62 66 65 69 65
63 63 64 64 64 64 64 64 64 63 64 64 64 63 63 63 61 65 72 72 71 70 70 67 64 66 59 61 61 54 46 51 57 55 56 60 57 58 61 61 60 63 67 66 64
63 63 63 63 63 64 64 63 63 63 63 63 63 63 63 61 63 67 71 72 71 70 71 71 69 67 57 58 58 56 50 57 62 62 61 60 60 61 58 56 61 62 66 65 64
62 62 62 63 63 63 64 63 63 63 63 63 63 63 62 61 54 67 70 71 70 70 70 68 64 58 55 54 62 52 60 62 62 63 60 59 60 60 58 63 66 66 66 65 67
61 61 61 62 62 63 63 63 63 63 63 63 63 62 61 59 64 69 68 68 68 68 66 64 60 59 53 56 59 54 57 61 62 61 61 61 58 58 59 65 65 67 67 66 65
61 61 61 61 62 62 63 63 63 62 62 62 62 61 58 55 71 72 69 67 70 66 64 64 63 63 58 57 55 57 57 58 60 61 61 58 57 58 62 63 64 65 64 64 65
61 61 61 61 61 62 62 62 62 62 62 63 63 62 59 62 70 70 70 67 68 67 64 65 65 61 58 55 59 58 53 56 58 58 58 58 52 56 62 61 63 63 62 63 65
61 60 60 60 61 61 61 62 61 62 62 63 63 59 58 67 65 69 70 66 68 68 66 65 66 62 58 59 58 52 47 44 56 58 57 55 46 59 63 58 62 64 61 62 55
60 59 60 60 60 60 61 61 61 62 63 63 56 55 56 67 65 66 66 64 65 66 64 71 63 56 56 48 43 44 40 44 50 57 55 52 47 58 62 61 59 59 59 56 53
60 60 60 60 60 60 61 61 62 61 61 64 66 53 60 61 62 64 63 65 61 60 59 57 53 47 46 43 36 41 40 45 45 54 53 49 48 54 58 57 58 54 54 50 50
60 60 60 60 60 61 59 58 56 55 55 57 58 58 63 61 64 61 63 61 61 55 47 51 44 41 47 48 48 46 43 42 46 54 49 49 48 53 57 57 57 52 49 49 48
60 60 60 60 61 61 57 56 54 55 50 61 61 61 64 64 57 58 62 55 54 48 50 46 41 50 52 53 49 45 42 42 47 52 48 47 48 53 58 51 50 48 47 47 47
60 60 60 60 60 58 57 56 61 57 47 56 58 59 58 61 55 55 59 56 50 47 48 42 49 54 53 49 47 45 43 42 44 46 47 43 41 47 48 50 50 49 48 47 45
60 61 60 59 56 60 55 60 60 57 41 50 52 55 58 57 50 58 59 54 51 47 47 46 52 52 47 46 48 41 48 47 45 39 34 43 30 42 46 43 45 44 42 42 43
59 60 59 59 57 57 59 60 58 53 29 52 51 60 57 52 52 50 56 52 47 48 47 46 47 45 44 48 50 45 47 44 42 37 34 36 31 38 44 40 41 41 42 42 43
58 58 59 59 58 59 60 58 55 43 31 46 50 49 49 50 50 51 51 53 52 47 46 47 49 49 49 50 49 49 43 43 39 36 27 36 35 36 41 43 40 42 42 42 42
56 57 57 61 57 61 60 55 43 35 51 44 45 49 47 46 47 48 46 42 42 37 37 44 45 48 50 43 46 44 37 29 26 24 26 36 33 40 46 45 43 40 39 40 40
54 55 56 60 61 60 56 48 34 43 45 50 49 48 45 49 48 47 44 41 46 42 39 36 35 43 46 45 42 40 39 28 19 23 25 34 30 39 41 43 42 41 40 41 40
55 52 53 56 60 58 50 39 38 43 50 48 49 43 42 48 48 45 42 42 47 47 40 37 37 44 46 46 46 39 34 40 31 29 22 29 37 38 41 40 40 39 39 39 41
50 49 50 56 58 53 44 41 42 51 51 51 42 45 38 43 43 42 42 44 44 46 47 42 31 43 43 44 42 41 44 31 31 17 16 27 30 33 36 37 39 38 38 39 41
48 44 51 56 56 46 37 39 46 53 53 47 43 40 41 42 45 39 41 44 45 43 46 42 38 35 41 38 38 37 35 36 35 30 23 18 27 40 40 40 38 38 40 41 41
46 39 50 54 41 43 39 42 49 48 51 47 46 43 41 42 39 40 41 43 47 46 40 42 36 25 34 42 43 42 39 38 31 27 28 28 31 42 41 40 40 40 40 39 39
43 42 50 51 33 36 42 45 47 45 46 46 44 46 46 42 37 41 42 43 46 43 41 42 32 17 25 34 38 34 36 37 36 31 24 21 26 40 39 40 41 39 39 37 37
43 36 41 44 43 38 39 41 41 47 46 47 46 46 42 40 43 38 39 41 43 41 45 44 34 25 23 29 33 29 32 32 33 23 21 25 29 38 41 35 37 37 36 35 35
40 37 40 34 38 40 40 40 38 38 44 45 42 42 40 34 36 36 39 38 40 43 40 39 24 30 31 30 29 28 29 31 27 29 21 29 29 35 38 32 31 33 34 35 35
35 35 37 35 40 38 38 36 38 41 41 38 38 41 41 35 36 28 33 34 34 35 35 36 21 25 15 29 29 26 29 29 29 30 29 31 30 40 32 34 32 34 35 34 34
37 39 37 37 35 35 34 37 38 41 39 42 42 39 36 34 37 37 37 36 35 32 31 29 22 12 10 26 21 13 23 28 30 32 29 24 30 24 27 32 31 31 33 33 34

GFSSW_sfc_temp_036.txt.gz
Temp
64 64 64 64 64 64 64 64 64 64 64 64 64 64 63 63 63 61 63 71 70 70 69 67 66 66 65 61 62 57 47 44 47 49 52 60 59 63 61 58 59 63 61 64 61
63 63 63 64 64 64 64 64 64 64 64 64 64 63 63 63 59 61 71 72 71 70 68 65 61 63 58 58 58 52 44 49 55 55 52 57 56 58 58 58 58 58 64 63 60
63 63 63 63 63 63 64 63 63 63 63 63 63 63 63 60 61 65 71 72 71 69 69 67 66 63 55 55 54 52 49 53 57 59 57 57 56 57 55 54 59 61 60 62 59
62 62 62 62 63 63 63 63 63 63 63 63 63 63 62 59 53 65 70 71 70 69 67 65 61 56 52 52 58 50 57 58 60 59 57 54 59 57 57 62 63 63 61 60 62
61 61 61 62 62 63 63 63 63 63 62 63 63 62 60 57 63 67 68 68 68 67 64 62 58 57 51 53 55 51 54 59 60 59 57 57 56 55 58 63 62 62 62 60 59
61 61 61 61 61 62 63 63 63 62 62 63 62 62 56 53 67 69 67 65 67 65 62 63 61 61 55 54 53 54 54 56 58 59 57 56 53 55 61 57 63 63 61 56 53
61 60 60 61 61 62 62 62 62 62 62 63 63 61 56 61 66 67 68 65 66 65 62 63 63 59 57 53 58 55 52 55 56 54 55 55 51 53 61 56 60 60 54 52 51
60 60 60 60 61 61 61 62 62 61 62 63 63 57 56 65 64 66 67 64 66 66 64 64 63 61 56 56 55 49 46 43 54 54 54 54 46 58 61 56 58 57 49 49 49
60 59 60 60 60 60 61 61 61 62 63 62 55 53 56 66 62 64 63 62 63 63 63 69 61 54 54 46 42 42 38 41 49 54 52 50 46 56 60 55 55 52 46 47 47
60 59 60 60 60 60 60 62 62 61 61 63 63 52 58 58 60 62 61 64 60 58 58 56 51 46 43 42 37 40 38 42 43 51 49 47 46 53 55 55 52 44 43 44 44
60 60 60 60 60 61 60 57 55 54 55 56 56 56 59 59 62 59 61 61 58 54 47 49 44 41 46 47 46 43 40 41 44 51 45 46 46 52 53 53 47 43 43 43 44
60 60 60 60 61 60 57 54 55 55 50 59 58 59 61 61 54 57 62 55 52 47 48 44 41 49 50 49 46 44 41 40 46 49 46 45 46 46 46 44 44 43 41 42 42
59 59 60 60 60 57 55 56 60 57 47 54 57 57 57 60 54 55 59 54 49 46 45 41 48 51 50 46 45 43 41 40 43 44 44 41 40 42 45 45 45 43 43 42 41
59 59 59 60 56 57 56 60 59 56 41 48 51 53 56 56 49 56 57 54 48 46 45 44 50 49 45 45 46 39 46 44 42 37 33 40 29 39 41 39 40 40 38 38 39
59 59 59 60 54 55 58 59 56 54 30 50 49 58 55 51 50 49 54 51 46 46 45 45 44 43 43 46 47 44 45 42 40 35 32 33 30 36 39 36 36 36 38 38 39
59 59 59 58 57 58 58 58 55 42 31 44 49 48 48 49 48 50 50 51 50 45 44 45 47 47 48 47 46 47 43 40 35 34 26 33 33 34 38 40 36 37 38 39 38
58 58 57 61 55 59 58 56 42 35 49 43 44 46 46 44 44 46 44 42 41 37 37 41 44 45 48 43 43 42 37 29 25 23 26 34 30 36 38 40 40 37 36 37 37
58 57 56 59 60 60 56 47 34 41 42 48 47 46 43 46 45 44 41 39 43 40 36 35 34 42 45 44 41 38 38 26 16 21 24 32 29 36 37 39 39 39 38 38 37
55 52 53 56 59 58 51 39 39 41 48 46 46 42 41 46 45 43 40 39 45 45 39 34 35 42 43 44 45 37 34 38 30 28 26 28 31 36 37 36 36 36 37 36 37
51 50 50 56 58 53 46 42 45 50 52 49 41 45 38 42 41 40 38 43 43 45 45 41 30 41 41 43 41 39 42 30 29 14 18 25 28 31 32 34 36 35 36 37 38
49 45 50 55 55 46 39 40 46 52 53 47 43 42 42 42 42 38 40 43 44 41 45 40 37 34 39 36 36 35 33 33 33 30 18 15 26 37 37 38 36 36 37 37 38
46 41 50 53 41 42 39 42 47 48 49 47 46 44 43 43 41 39 40 43 46 45 40 41 35 25 33 39 39 39 36 35 30 26 26 26 29 40 40 38 38 38 39 38 38
42 42 50 50 37 37 42 44 46 44 45 44 43 45 45 42 38 40 41 42 43 43 40 42 30 17 25 34 35 34 34 35 32 30 21 24 25 39 38 37 38 37 37 37 35
42 35 41 44 43 43 40 41 40 46 45 46 44 44 41 39 42 37 35 40 41 40 45 44 32 27 24 29 32 28 32 32 30 22 22 26 28 34 36 35 35 37 36 34 33
40 37 41 36 39 40 42 40 39 38 44 46 41 42 40 35 36 35 37 37 40 43 39 38 25 28 30 31 31 28 30 30 28 30 24 31 29 36 37 32 34 34 32 32 32
35 34 37 37 41 39 38 35 37 40 41 39 38 40 41 35 36 31 34 33 34 34 34 35 22 25 17 29 30 27 30 29 30 31 29 30 29 40 36 31 30 32 32 32 32
38 39 37 37 36 36 35 36 38 42 39 41 42 39 36 37 38 37 37 37 36 33 31 30 24 18 16 24 22 15 22 29 32 31 29 24 30 24 27 32 31 31 31 32 33

GFSSW_sfc_temp_042.txt.gz
Temp
63 63 64 64 64 64 64 64 64 64 64 64 64 63 63 63 63 58 59 67 66 70 68 62 64 62 61 58 57 52 46 41 44 46 48 52 54 55 56 53 57 57 56 59 60
63 63 63 64 64 63 64 64 63 63 63 63 63 63 63 63 57 58 69 72 71 70 63 61 58 60 56 54 54 50 43 47 49 49 48 52 50 52 53 54 52 55 59 61 60
62 63 63 63 63 63 63 63 63 63 63 63 63 63 62 60 60 61 71 72 71 68 65 63 62 59 52 51 50 47 47 49 52 53 52 52 52 53 49 51 53 53 57 56 53
62 62 62 62 63 63 63 63 63 63 63 63 63 62 62 58 51 61 70 70 70 65 64 61 59 53 49 48 52 46 52 53 55 54 52 51 55 54 53 54 55 53 53 49 48
61 61 61 61 62 62 63 63 63 62 62 63 63 62 58 55 60 63 67 68 64 63 61 59 55 53 48 49 50 47 50 53 55 54 53 53 53 52 55 54 55 53 49 46 46
61 60 60 61 61 62 62 63 63 62 62 63 63 62 55 51 63 65 64 63 63 62 58 59 58 58 52 50 49 50 50 53 54 53 52 52 48 49 53 53 52 49 45 44 44
60 60 60 60 61 61 62 62 62 62 62 63 63 60 54 59 62 62 64 61 63 62 59 59 60 56 54 50 53 51 49 51 51 50 51 52 48 50 52 52 49 44 43 43 43
60 60 60 60 60 61 61 62 61 61 62 63 62 55 55 62 61 62 62 61 62 63 62 61 61 58 53 54 51 45 45 42 48 49 50 50 46 53 53 51 45 42 40 42 42
60 59 59 60 60 60 60 61 60 62 63 62 54 52 54 64 59 60 60 60 59 60 60 65 59 51 52 45 41 41 37 38 45 49 48 47 45 50 48 49 41 38 38 40 40
59 59 59 60 60 60 61 61 61 60 60 61 61 51 56 56 58 60 58 61 57 56 55 54 48 43 41 41 36 38 35 38 40 45 46 43 46 47 43 41 37 36 36 38 39
59 59 60 60 60 61 60 55 53 51 51 54 54 53 56 57 59 56 58 58 55 53 45 45 43 40 43 45 43 42 38 38 41 46 43 43 43 42 40 38 36 36 36 37 38
60 60 60 60 60 60 58 51 53 54 49 56 55 56 58 59 53 55 59 53 49 45 45 42 39 47 47 45 44 40 37 37 42 44 44 41 41 38 38 36 36 36 36 36 37
59 59 59 59 60 58 55 55 58 55 47 52 53 53 55 58 54 53 58 52 47 43 43 40 46 48 47 42 41 38 37 37 41 40 39 38 37 36 36 37 38 37 37 37 36
59 59 59 59 56 57 54 59 60 57 41 45 49 52 54 56 49 55 56 53 46 45 43 42 46 46 41 41 43 36 43 42 40 36 32 36 29 34 34 33 35 35 33 34 34
59 59 59 59 55 54 58 58 57 56 29 47 46 56 53 51 48 48 53 51 44 44 45 42 42 42 41 43 45 41 42 40 38 33 31 30 29 33 33 30 32 33 34 33 34
59 58 58 57 57 56 57 58 58 41 30 41 46 45 46 48 47 48 48 51 49 44 42 43 45 45 45 43 44 44 40 37 32 31 24 30 32 31 32 34 32 33 34 35 34
58 58 57 61 55 58 57 55 40 34 46 40 40 43 43 42 43 45 43 41 39 35 35 40 42 43 45 41 41 40 37 29 25 23 25 28 27 34 37 35 36 35 34 34 34
58 58 57 61 61 59 54 46 34 41 41 43 42 41 40 42 41 41 39 38 42 39 35 36 34 42 46 42 40 37 38 28 19 20 23 30 26 34 34 34 37 38 35 34 33
57 56 56 59 59 57 48 39 39 41 46 42 42 37 37 41 41 39 37 37 42 41 38 34 36 41 42 42 42 35 33 36 28 20 21 27 31 32 33 32 32 33 33 32 33
55 54 55 60 58 54 45 41 43 49 49 46 41 41 35 37 38 37 35 41 42 44 43 41 32 38 39 41 40 38 40 31 28 16 13 25 26 31 30 31 32 31 32 33 34
52 47 53 60 55 49 40 41 47 51 52 48 45 42 39 38 39 35 37 41 44 40 45 40 38 33 38 35 35 34 33 32 32 26 18 14 25 34 36 33 32 33 35 34 34
49 43 51 56 46 46 43 46 49 48 50 49 47 46 42 41 38 37 37 41 45 45 40 42 36 27 33 35 36 36 35 35 29 25 24 25 30 36 35 36 36 36 36 35 35
45 45 49 49 41 42 43 44 45 44 46 45 45 46 43 41 38 39 39 40 44 44 42 42 33 21 27 32 33 32 34 35 32 27 22 21 26 36 34 35 35 35 35 35 35
43 38 41 44 43 44 42 41 40 43 43 44 43 44 42 38 41 38 37 39 40 40 45 46 35 30 29 31 33 30 32 32 31 22 25 31 35 31 33 34 33 35 35 35 34
42 39 42 36 39 41 44 42 40 37 41 43 38 40 41 35 36 36 36 36 39 42 39 41 34 30 29 30 29 29 31 31 29 35 29 34 32 33 36 35 34 35 35 35 34
37 37 38 37 42 40 40 38 38 39 39 37 36 39 39 35 37 32 34 36 37 36 36 35 27 27 22 29 29 28 30 29 32 29 27 29 30 38 33 33 34 35 35 34 33
38 39 37 39 38 37 36 35 37 41 39 41 41 38 37 39 40 38 39 40 39 36 32 31 26 23 21 23 24 25 25 29 29 30 31 27 35 26 28 33 33 33 32 33 33

GFSSW_sfc_temp_045.txt.gz
Temp
63 63 64 64 64 64 64 64 64 64 64 64 64 63 63 63 64 59 60 66 67 70 69 64 66 64 63 60 59 56 49 45 49 49 54 58 59 62 62 62 63 65 65 63 62
63 63 63 63 63 63 64 63 63 63 63 63 63 63 63 63 58 59 68 72 71 70 64 62 60 61 57 57 56 52 47 50 53 54 54 56 56 59 60 59 60 62 62 57 56
62 62 63 63 63 63 63 63 63 63 63 63 63 63 63 60 60 60 70 72 71 68 65 64 63 61 55 55 53 51 50 52 55 56 56 55 55 58 57 56 59 60 55 53 52
62 62 62 62 62 63 63 63 63 63 63 63 63 63 62 58 51 62 69 70 70 66 65 62 60 55 51 51 54 50 53 54 56 56 55 54 57 56 56 58 56 51 51 50 49
61 61 61 61 62 62 63 63 63 62 62 63 63 63 59 56 60 63 67 67 64 63 62 60 56 55 52 52 53 50 52 54 56 55 54 54 54 55 55 52 51 50 48 47 46
60 60 60 61 61 62 62 62 63 62 62 63 63 62 56 51 63 64 64 63 63 62 59 60 58 58 54 52 52 52 52 53 54 55 54 54 52 54 53 51 50 48 45 45 45
60 60 60 60 61 61 62 62 62 62 62 63 63 60 54 59 62 62 63 61 61 62 59 59 60 57 56 51 53 52 50 52 52 52 53 54 50 50 52 50 46 44 43 44 44
60 60 60 60 60 61 61 61 61 61 62 63 63 56 55 61 60 62 62 60 62 62 62 60 61 58 55 54 52 47 47 45 50 51 51 52 47 48 49 50 43 42 42 42 43
60 59 59 60 60 60 60 61 60 62 63 62 55 53 54 64 59 61 60 60 60 60 60 64 58 51 53 47 43 43 41 41 47 50 50 49 47 46 46 45 40 40 41 42 42
59 59 59 60 60 60 61 61 61 60 60 60 61 51 56 55 57 60 57 61 57 56 56 54 48 44 43 43 37 40 39 40 42 47 48 45 48 41 42 41 38 38 39 40 40
60 59 60 60 60 60 59 54 53 51 50 54 53 52 55 56 58 55 58 57 56 54 47 46 44 42 44 46 44 43 40 42 43 47 45 45 45 41 40 39 38 38 39 39 39
60 60 60 60 60 60 59 51 54 54 48 55 53 54 57 58 52 55 59 54 51 45 45 42 39 47 47 45 44 41 39 39 43 45 44 42 43 39 39 38 39 38 38 38 39
59 59 59 59 60 58 56 54 58 54 46 51 52 52 54 57 54 53 57 52 47 42 43 40 45 47 47 41 41 39 39 38 42 41 41 39 40 37 37 38 38 38 38 38 38
59 59 59 59 56 56 54 59 58 55 40 44 49 51 53 55 49 54 57 54 46 44 43 42 46 46 42 41 43 37 43 42 40 38 34 38 33 38 35 34 36 36 36 37 37
59 59 59 60 54 54 58 58 57 55 28 46 45 55 52 51 48 47 53 51 44 44 45 43 42 42 40 43 46 42 42 41 39 35 33 34 33 36 34 32 33 34 35 36 37
58 58 58 57 56 56 57 58 57 41 30 40 44 44 46 47 46 47 49 52 49 44 41 43 44 45 46 44 44 43 40 37 34 33 26 34 34 34 33 36 35 35 35 36 36
58 58 57 60 54 57 58 54 40 33 45 39 38 42 41 41 42 44 43 40 38 34 34 39 41 44 46 41 43 41 39 30 27 25 27 30 30 36 39 38 39 37 36 36 36
57 57 57 59 60 58 54 46 33 40 41 41 41 40 39 41 40 41 39 38 42 39 34 34 32 41 44 43 40 37 39 31 24 22 26 30 27 37 36 36 37 39 38 36 35
57 56 56 58 58 56 48 38 36 39 46 41 41 35 35 39 40 37 36 36 43 42 40 34 36 40 42 42 43 38 35 38 28 21 23 30 33 38 35 34 33 34 35 35 34
56 54 54 60 59 53 44 39 41 48 46 45 41 41 34 36 37 36 34 40 41 44 44 41 32 38 39 41 39 39 41 32 29 20 18 27 29 34 34 33 31 31 35 35 35
54 49 54 59 55 49 40 40 44 49 51 45 44 40 37 37 39 34 36 40 42 42 46 40 37 33 38 36 36 34 33 33 34 28 21 18 28 36 38 35 33 34 36 36 36
52 44 52 57 45 46 42 45 48 48 51 49 48 49 43 41 39 36 37 41 44 45 41 42 37 27 32 35 36 35 36 35 31 25 24 26 28 36 35 37 37 37 37 37 37
47 47 50 54 41 42 44 46 47 47 48 49 46 48 46 45 40 40 37 41 43 45 44 42 34 24 27 33 33 33 35 35 33 29 22 23 24 36 34 35 35 35 35 36 36
44 40 42 44 45 45 43 42 42 45 47 48 45 46 42 41 44 38 37 38 40 42 46 47 35 35 35 33 34 30 32 33 35 23 27 31 30 33 35 36 35 35 35 35 35
44 41 43 36 40 43 44 42 40 39 42 44 39 44 44 39 41 40 36 36 39 42 39 42 36 31 29 30 30 29 32 31 32 36 31 33 34 35 39 38 37 36 34 34 34
40 38 39 38 42 42 42 41 40 42 41 39 39 43 41 42 43 37 35 36 36 36 36 36 30 30 25 29 30 29 31 31 33 32 33 32 33 40 40 34 33 35 34 34 34
38 39 38 39 38 39 40 41 40 44 40 42 42 41 38 40 39 37 37 39 38 35 33 34 28 29 26 23 24 25 27 30 29 29 34 28 36 31 32 34 34 34 34 34 35

GFSSW_sfc_temp_048.txt.gz
Temp
63 63 64 64 64 64 64 64 64 64 64 64 64 64 64 64 64 69 74 74 75 71 71 78 79 77 78 73 72 70 69 63 63 63 67 71 71 73 74 74 75 74 71 66 68
63 63 63 63 63 63 64 64 63 63 64 63 64 64 64 63 70 73 72 72 71 71 77 77 75 76 75 70 71 72 67 65 69 70 69 69 70 71 72 71 72 71 68 66 67
62 62 63 63 63 63 63 63 63 63 63 63 64 63 63 65 73 73 71 72 71 73 77 76 76 74 70 70 68 65 66 66 67 69 70 68 67 70 70 67 69 68 64 63 64
62 62 62 62 62 63 63 63 63 63 63 63 63 63 63 71 65 74 70 71 70 77 77 75 74 70 67 66 66 65 65 66 66 67 66 66 68 67 67 65 63 62 61 61 61
61 61 61 61 62 62 63 63 63 63 63 63 63 63 70 71 72 73 68 69 74 75 74 73 71 69 66 66 65 64 65 65 66 65 65 64 66 66 63 60 61 60 59 58 59
61 60 60 61 61 62 62 63 63 62 62 63 63 63 71 65 72 74 72 71 74 75 72 74 72 71 66 65 65 65 63 65 66 65 65 63 63 65 60 61 59 58 57 57 56
60 60 60 60 61 61 62 62 62 61 62 63 64 67 67 70 74 74 72 72 73 74 71 72 73 70 68 62 64 63 61 65 65 63 64 64 59 60 61 60 57 55 56 55 54
60 60 60 60 60 61 61 62 61 61 62 63 63 68 66 70 74 70 73 71 73 74 72 72 73 68 67 65 63 61 60 58 62 61 61 62 59 57 59 60 55 53 54 53 52
60 59 60 60 60 60 61 61 61 62 63 63 65 67 64 68 66 71 73 70 70 70 70 70 70 64 64 61 59 57 57 54 58 61 61 60 58 56 56 57 53 53 53 52 52
60 59 59 60 60 60 60 61 61 62 63 65 67 62 64 63 66 67 70 70 67 67 66 65 64 60 58 60 53 55 53 54 56 59 59 58 60 54 52 54 52 52 52 51 51
60 60 60 60 60 60 62 63 61 59 59 63 63 64 62 64 67 64 67 67 67 64 58 59 58 53 60 62 60 58 55 55 56 57 57 59 59 61 51 52 52 51 51 51 50
60 60 60 60 60 60 62 59 62 62 57 62 60 61 64 66 59 61 67 63 60 56 55 54 52 62 58 57 56 55 54 55 55 55 55 57 56 60 50 50 52 51 51 51 50
60 59 59 59 60 60 60 58 64 65 57 59 59 60 60 64 62 59 64 61 58 52 54 56 58 58 55 51 51 53 52 54 53 52 53 51 52 50 45 46 47 49 51 51 52
60 59 59 59 56 61 57 63 64 64 52 54 54 59 58 63 56 62 65 62 55 54 52 55 56 52 52 52 54 50 54 52 50 49 46 50 47 50 47 44 44 46 48 49 49
59 59 59 60 61 57 61 64 64 63 36 54 50 60 57 59 56 53 61 59 54 52 54 53 48 49 49 52 53 52 52 51 49 48 46 46 45 53 44 42 43 46 48 50 50
58 58 58 58 60 61 60 61 62 46 35 46 50 49 50 52 51 53 56 59 57 52 51 53 53 53 55 50 53 50 49 46 46 46 38 47 45 50 44 48 46 47 47 48 47
58 58 57 60 54 58 61 55 40 34 54 45 45 48 49 46 46 49 48 48 49 44 45 49 48 51 52 48 49 50 48 40 36 36 37 40 39 52 50 47 47 46 46 47 47
57 57 57 60 60 58 55 47 31 46 51 48 46 46 45 47 47 46 45 45 52 49 45 43 41 47 52 53 48 46 50 41 30 32 38 36 37 48 46 46 46 51 49 47 46
57 56 56 58 57 56 50 37 38 49 54 48 46 43 43 45 47 45 46 48 51 50 46 42 42 49 49 50 53 45 41 49 34 28 34 43 44 49 41 41 42 45 45 44 45
55 52 54 59 57 52 45 39 43 55 55 54 46 50 43 44 44 45 44 50 48 51 55 48 40 44 45 49 47 47 52 39 41 30 30 36 37 47 39 41 39 40 42 44 45
54 47 55 60 55 48 39 40 47 54 56 51 50 49 48 44 47 44 47 49 53 48 53 48 45 40 43 43 45 41 42 42 46 40 35 34 40 51 50 47 42 43 45 46 45
51 41 56 57 45 46 42 45 49 50 54 54 51 52 48 46 44 45 46 52 54 51 44 50 43 36 40 44 44 50 47 47 41 32 36 35 42 45 47 49 48 46 46 48 47
46 46 52 54 41 42 45 46 49 48 49 49 48 52 54 47 42 47 49 52 51 50 48 49 39 32 34 41 41 40 43 47 46 37 33 34 40 44 43 44 47 47 46 46 46
48 40 45 45 47 44 43 43 43 48 49 51 51 50 44 45 48 46 45 45 47 51 49 52 42 38 38 44 46 37 42 42 42 37 39 38 44 41 44 44 45 46 47 46 46
46 42 47 38 41 41 45 45 42 41 46 49 44 47 46 40 41 41 47 40 42 45 45 47 36 43 46 41 43 41 41 41 40 45 40 45 43 47 48 47 48 50 48 46 45
43 40 39 42 44 42 42 41 42 44 41 41 41 46 45 42 43 39 43 42 43 40 41 40 36 41 37 39 37 36 42 42 43 45 46 47 44 54 52 49 47 47 45 44 45
39 41 42 42 42 40 40 41 42 46 44 47 44 43 40 43 47 39 39 42 42 40 38 37 37 32 31 36 30 28 35 40 43 46 47 40 46 42 41 44 46 46 45 45 45